This is the latest recevied weather packets stored in our database for station/object N4HAC. If no packets are shown the sender has not sent any weather packets the latest 10 day(s).
| Time | Temp. | Humidity | Pressure | Rain* | Wind** | Luminosity | Snow |
|---|---|---|---|---|---|---|---|
| 1777321039 | 20.56° C | 47% | 1017 hPa | 0 mm | - | 519 W/m² | - |
| 1777320737 | 19.44° C | 50% | 1017.1 hPa | 0 mm | - | 543 W/m² | - |
| 1777320434 | 19.44° C | 48% | 1017.3 hPa | 0 mm | - | 551 W/m² | - |
| 1777320131 | 19.44° C | 52% | 1017.4 hPa | 0 mm | - | 561 W/m² | - |
| 1777319828 | 19.44° C | 50% | 1017.2 hPa | 0 mm | - | 557 W/m² | - |
| 1777319525 | 19.44° C | 48% | 1017.3 hPa | 0 mm | - | 594 W/m² | - |
| 1777319222 | 19.44° C | 47% | 1017.2 hPa | 0 mm | - | 595 W/m² | - |
| 1777318919 | 19.44° C | 50% | 1017.4 hPa | 0 mm | - | 619 W/m² | - |
| 1777318616 | 20° C | 50% | 1017.4 hPa | 0 mm | - | 630 W/m² | - |
| 1777318311 | 20° C | 47% | 1017.3 hPa | 0 mm | - | 649 W/m² | - |
| 1777318008 | 19.44° C | 49% | 1017.5 hPa | 0 mm | - | 664 W/m² | - |
| 1777317706 | 18.89° C | 50% | 1017.3 hPa | 0 mm | - | 624 W/m² | - |
| 1777317403 | 18.89° C | 51% | 1017.5 hPa | 0 mm | - | 623 W/m² | - |
| 1777317098 | 18.89° C | 52% | 1017.3 hPa | 0 mm | - | 424 W/m² | - |
| 1777316796 | 18.33° C | 51% | 1017.3 hPa | 0 mm | - | 541 W/m² | - |
| 1777316492 | 18.89° C | 51% | 1017.5 hPa | 0 mm | - | 431 W/m² | - |
| 1777316189 | 18.89° C | 52% | 1017.6 hPa | 0 mm | - | 549 W/m² | - |
| 1777315887 | 19.44° C | 50% | 1017.5 hPa | 0 mm | - | 615 W/m² | - |
| 1777315585 | 19.44° C | 49% | 1017.7 hPa | 0 mm | - | 626 W/m² | - |
| 1777315283 | 18.89° C | 49% | 1018 hPa | 0 mm | - | 629 W/m² | - |
| 1777314980 | 18.89° C | 51% | 1018.1 hPa | 0 mm | - | 731 W/m² | - |
| 1777314675 | 19.44° C | 47% | 1017.8 hPa | 0 mm | - | 739 W/m² | - |
| 1777314372 | 18.89° C | 50% | 1018.4 hPa | 0 mm | - | 590 W/m² | - |
| 1777314070 | 18.89° C | 49% | 1018.3 hPa | 0 mm | - | 801 W/m² | - |
| 1777313768 | 19.44° C | 53% | 1018.3 hPa | 0 mm | - | 808 W/m² | - |
* Rain latest hour (hover to see other rain measurements)
** Current wind speed in m/s (hover to see current wind gust speed)